Indian Point Energy Center-NY 27435

Lot #0012: Hankison International Air Dryer

Bidding is closed.
High Bid:$1,550.00
NA
Bidding Ended: Thu, Feb 10  7:40:00 pm ET
High Bidder: oldjunk
Bid Increment: $25.00
Starting Bid: $10.00
Item Location: 450 Broadway, Buchanan, Westchester, NY 10511
Distance: Please click on the location address to view the item's location on a map.
Item has been viewed 550 times.
Twitter Google Email Pinterest Facebook

Hankison International Air Dryer

Model #D11370

Pressure-Swing Regenerative Desiccant Compressed Air Dryer, -40oF Dew Point

Model #DH-370

Serial #3336-2-0012-20SD

Rated Capacity:  370 SCFM @ 100 PSIG

Min./Max. Working Pressure:  60 PSIG / 160 PSIG

Max. Operating Temperature:  120oF

Desiccant Type:  Activated Alumina

Voltage:  110/120 VAC, 1 Phase, 60 Hz

Features:  NEMA 4 Electrical Enclosure, Switching Failure Alarm Lights, Tower Status Lights, Sensatherm Automatic Purge Saving Control

Factory Packaged Pre- and After-Filter with 3-Valve Bypass

Year of Manufacture: 2000

Condition:  New, unused, stored indoors

Palletized on one pallet for easy transport

Sold As-Is.

***Please review all Auction terms at left side of auction before bidding***

Terms of Sale:
All sales are final. No refunds will be issued. This item is being sold as is, where is, with no warranty, expressed written or implied. The seller shall not be responsible for the correct description, authenticity, genuineness, or defects herein, and makes no warranty in connection therewith. No allowance or set aside will be made on account of any incorrectness, imperfection, defect or damage. Any descriptions or representations are for identification purposes only and are not to be construed as a warranty of any type. It is the responsibility of the buyer to have thoroughly inspected this item and to have satisfied himself or herself as to the condition and value and to bid based upon that judgment solely. The seller shall and will make every reasonable effort to disclose any known defects associated with this item at the buyer request prior to the close of sale. Seller assumes no responsibility for any repairs regardless of any oral statements about the item. Seller is NOT responsible for providing tools or heavy equipment to aid in removal. Items left on seller premises after this removal deadline will revert back to possession of the seller, with no refund.


Click on any picture to see a larger image.
Bid Date Bid Amount Bidder
Feb 2, 2022 - 7:21:50 AM $1,550.00 ioldjunk
Feb 1, 2022 - 8:56:20 PM $1,525.00 iMichaelmartin2641
Feb 1, 2022 - 8:56:18 PM $1,500.00 ioldjunk
Feb 1, 2022 - 8:56:19 PM $1,500.00 iMichaelmartin2641
Feb 1, 2022 - 8:56:15 PM $1,475.00 ioldjunk
Feb 1, 2022 - 8:56:15 PM $1,450.00 iMichaelmartin2641
Feb 1, 2022 - 8:56:13 PM $1,425.00 ioldjunk
Feb 1, 2022 - 8:56:13 PM $1,400.00 iMichaelmartin2641
Feb 1, 2022 - 8:56:09 PM $1,375.00 ioldjunk
Feb 1, 2022 - 8:56:09 PM $1,350.00 iMichaelmartin2641
Feb 1, 2022 - 8:56:07 PM $1,325.00 ioldjunk
Feb 1, 2022 - 8:56:07 PM $1,300.00 iMichaelmartin2641
Feb 1, 2022 - 8:56:04 PM $1,275.00 ioldjunk
Feb 1, 2022 - 8:56:04 PM $1,250.00 iMichaelmartin2641
Feb 1, 2022 - 8:56:02 PM $1,225.00 ioldjunk
Feb 1, 2022 - 8:56:02 PM $1,200.00 iMichaelmartin2641
Feb 1, 2022 - 8:55:59 PM $1,175.00 ioldjunk
Feb 1, 2022 - 8:55:59 PM $1,150.00 iMichaelmartin2641
Feb 1, 2022 - 8:55:57 PM $1,125.00 ioldjunk
Feb 1, 2022 - 8:55:57 PM $1,100.00 iMichaelmartin2641
Feb 1, 2022 - 8:55:55 PM $1,075.00 ioldjunk
Feb 1, 2022 - 8:55:55 PM $1,050.00 iMichaelmartin2641
Jan 28, 2022 - 6:57:07 AM $1,025.00 ioldjunk
Jan 28, 2022 - 6:56:57 AM $1,000.00 iMichaelmartin2641
Jan 28, 2022 - 6:56:58 AM $1,000.00 ioldjunk
Jan 27, 2022 - 10:24:15 PM $610.00 iMichaelmartin2641
Jan 27, 2022 - 10:24:15 PM $600.00 iHunterStewart
Jan 27, 2022 - 10:24:11 PM $560.00 iMichaelmartin2641
Jan 27, 2022 - 10:24:11 PM $550.00 iHunterStewart
Jan 27, 2022 - 10:24:03 PM $510.00 iMichaelmartin2641
Jan 27, 2022 - 10:24:03 PM $500.00 iHunterStewart
Jan 27, 2022 - 10:23:58 PM $460.00 iMichaelmartin2641
Jan 27, 2022 - 10:23:58 PM $450.00 iHunterStewart
Jan 27, 2022 - 10:23:53 PM $360.00 iMichaelmartin2641
Jan 27, 2022 - 10:23:53 PM $350.00 iHunterStewart
Jan 27, 2022 - 10:16:17 PM $270.00 iMichaelmartin2641
Jan 27, 2022 - 7:57:02 PM $260.00 iHunterStewart
Jan 27, 2022 - 7:56:59 PM $250.00 ioldjunk
Jan 27, 2022 - 7:56:59 PM $240.00 iHunterStewart
Jan 27, 2022 - 7:56:57 PM $230.00 ioldjunk
Jan 27, 2022 - 7:56:57 PM $220.00 iHunterStewart
Jan 27, 2022 - 7:56:54 PM $210.00 ioldjunk
Jan 27, 2022 - 7:56:54 PM $200.00 iHunterStewart
Jan 27, 2022 - 7:56:52 PM $195.00 ioldjunk
Jan 27, 2022 - 7:56:52 PM $190.00 iHunterStewart
Jan 27, 2022 - 7:56:49 PM $185.00 ioldjunk
Jan 27, 2022 - 7:56:49 PM $180.00 iHunterStewart
Jan 27, 2022 - 7:56:47 PM $175.00 ioldjunk
Jan 27, 2022 - 7:56:47 PM $170.00 iHunterStewart
Jan 27, 2022 - 7:56:44 PM $165.00 ioldjunk
Jan 27, 2022 - 7:56:44 PM $160.00 iHunterStewart
Jan 27, 2022 - 7:56:41 PM $155.00 ioldjunk
Jan 27, 2022 - 7:56:41 PM $150.00 iHunterStewart
Jan 27, 2022 - 7:56:38 PM $145.00 ioldjunk
Jan 27, 2022 - 7:56:38 PM $140.00 iHunterStewart
Jan 27, 2022 - 7:56:35 PM $135.00 ioldjunk
Jan 27, 2022 - 7:56:35 PM $130.00 iHunterStewart
Jan 27, 2022 - 7:56:32 PM $125.00 ioldjunk
Jan 27, 2022 - 7:56:32 PM $120.00 iHunterStewart
Jan 27, 2022 - 7:56:28 PM $115.00 ioldjunk
Jan 27, 2022 - 7:56:28 PM $110.00 iHunterStewart
Jan 27, 2022 - 7:38:23 PM $105.00 ioldjunk
Jan 27, 2022 - 7:38:23 PM $100.00 iaircraftmx
Jan 27, 2022 - 5:04:42 PM $57.50 iaircraftmx
Jan 27, 2022 - 5:04:42 PM $55.00 iapsco
Jan 27, 2022 - 2:23:59 PM $10.00 iapsco